Other Surface Observations
Issued by NWS Charleston, SC

Home | Current Version | Previous Version | Text Only | Print | Product List | Glossary On
Versions: 1 2 3 4 5 6 7 8 9 10 11 12 13 14 15 16 17 18 19 20 21 22 23 24 25 26 27 28 29 30 31 32 33 34 35 36 37 38 39 40 41 42 43 44 45 46 47 48 49 50
000
SXUS52 KCHS 021312
OSOCHS

MARINE OBSERVATIONS
NATIONAL WEATHER SERVICE CHARLESTON SC
900 AM EDT WED SEP 02 2015

...DOWNTOWN CHARLESTON AND HARBOR...

CITY           SKY/WX    TMP DP  RH WIND       PRES   REMARKS
WATERFRONT PRK   N/A     79  77  94 N5        30.07R

...LAKE MOULTRIE...

CITY           SKY/WX    TMP DP  RH WIND       PRES   REMARKS
PINOPOLIS        N/A     81  75  83 NW6       30.01F

...LAKE AND SUPPLEMENTAL COASTAL OBSERVATIONS...

STATION/POSITION TIME  TEMP    WIND        PRES    WAVE   SWELL
                       AIR SEA DIR/SP/G            HT/PER HT/PER/DIR
                 (UTC) (F)     (DEG/KT/KT) (MB)    (FT/S) (FT/S/D)
FORT PULASKI     1200   78 83  350/  5/  6 1019.7R
SAPELO ISLAND    1200   79     200/  3     1019.0R
UPR LAKE MARION  NOT AVBL
WINYAH BAY       NOT AVBL
LAKE MURRAY      1200   77     260/  2/  3 1019.0R
ACE BASIN NERRS  NOT AVBL


...C-MAN AND BUOY OBSERVATIONS...

STATION/POSITION TIME  TEMP    WIND        PRES    WAVE   SWELL
                       AIR SEA DIR/SP/G            HT/PER HT/PER/DIR
                 (UTC) (F)     (DEG/KT/KT) (MB)    (FT/S) (FT/S/D)
BUOY 41004       1250   81 83  340/  8/ 10 1018.3S   2/10   2/10
BUOY 41008       1250   84 84  240/  8/ 10 1019.1R   2/ 6   2/120/ 6
FOLLY BEACH CMAN 1300   81     310/  3/  6 1019.4R
CAPERS NS BUOY   1208   79     350/  8/ 10 1019.0R
FRIPP NS BUOY    1200   81     350/  6/  8 1018.9R
5E ST. MARYS GA  1221      85                N/A     2/ 9


STATION/POSITION TIME  TEMP    WIND        PRES    WAVE   SWELL
                       AIR SEA DIR/SP/G            HT/PER HT/PER/DIR
                 (UTC) (F)     (DEG/KT/KT) (MB)    (FT/S) (FT/S/D)
FRYING PAN BUOY  1250   82 81  310/  8/ 10 1018.8F   2/ 7   2/140/ 7
BUOY 41025       1150   80 83  330/  8/ 10 1017.9    2/10   2/ 50/10
CAPE LOOKOUT NC  1300   78     320/  6/  7 1017.8S
BUOY 41002       1250   83 83  320/ 12/ 14 1018.1R   2/14   2/ 10/14
BUOY 41010       1220   85 85  180/  2/  4 1019.2R
ST AUGUSTINE FL  1300   81 83  200/  8/  9 1019.8R

$$



USA.gov is the U.S. government's official web portal to all federal, state and local government web resources and services.